Regional Weather Roundup
Issued by NWS

Home | Current Version | Previous Version | Text Only | Print | Product List | Glossary Off
Versions: 1 2 3 4 5 6 7 8 9 10 11 12 13 14 15 16 17 18 19 20 21 22 23 24 25 26 27 28 29 30 31 32 33 34 35 36 37 38 39 40 41 42 43 44 45 46 47 48 49 50

000
ASUS43 KLOT 180703
RWRIL

ILLINOIS REGIONAL WEATHER ROUNDUP
NATIONAL WEATHER SERVICE CHICAGO/ROMEOVILLE IL
200 AM CDT FRI AUG 18 2017

NOTE: "FAIR" INDICATES FEW OR NO CLOUDS BELOW 12,000 FEET WITH NO
SIGNIFICANT WEATHER AND/OR OBSTRUCTIONS TO VISIBILITY.

* THESE STATIONS ARE NOT UNDER NWS QUALITY CONTROL. THEY ALSO MAY NOT
  REPORT WEATHER SUCH AS PRECIPITATION OR FOG.

ILZ001-002-007-009-015-016-024-180800-
NORTHWEST ILLINOIS

CITY           SKY/WX    TMP DP  RH WIND       PRES   REMARKS
MOLINE         CLEAR     68  62  81 W8        29.84S
STERLING*      CLEAR     66  63  90 W7        29.83R
SAVANNA*       CLEAR     67  63  87 W7        29.83R
$$

ILZ003-004-008-010-011-017-018-180800-
NORTH CENTRAL ILLINOIS

CITY           SKY/WX    TMP DP  RH WIND       PRES   REMARKS
ROCKFORD       MOCLDY    67  63  87 W7        29.81R
FREEPORT*      CLEAR     64  63  94 W6        29.82S
ROCHELLE*      CLEAR     65  63  93 W7        29.82R
PERU*          CLEAR     65  63  91 W9        29.82F
$$

ILZ005-006-012>014-019>023-180800-
NORTHEAST ILLINOIS

CITY           SKY/WX    TMP DP  RH WIND       PRES   REMARKS
CHICAGO-OHARE  PTCLDY    70  62  76 W13       29.76F
CHICAGO-MIDWAY PTCLDY    72  64  76 W14       29.77S
AURORA         CLEAR     67  64  90 W9        29.80S
LANSING*       CLEAR     71  62  72 W12G17    29.79S
JOLIET*        CLEAR     69  66  90 W7        29.80S
WAUKEGAN       CLEAR     67  63  87 VRB5      29.74F
DUPAGE AIRPORT PTCLDY    68  65  90 W8        29.78S
KANKAKEE*      CLEAR     66  64  94 W12       29.82S
WHEELING       MOCLDY    68  66  93 W10       29.77F
MORRIS*        CLEAR     67  64  90 W7        29.79F
NORTHERLY ISL    N/A     72  63  73 SW9         N/A
$$

LMZ740>746-180800-
SOUTHERN LAKE MICHIGAN

STATION/POSITION SKY/WX   TEMP    WIND        PRES    VSBY  WAVE
                          AIR SEA DIR/SP/G                  HT/PER
                          (F)     (DEG/KT/KT) (MB)    (MI)  (FT/S)
SOUTHERN BUOY              71 71  300/ 21/ 25 1006.0          5/ 5
WILMETTE HARBOR            70 72  270/ 14/ 19   N/A           2/ 3
HARRISON CRIB              73     300/ 19/ 23   N/A
CALUMET HARBOR             72     250/  3/ 11 1007.6F
BURNS HARBOR               74     270/ 18/ 22 1008.5F
MICHIGAN CITY              74     250/ 22/ 25   N/A
MICHIGAN CITY 6N           74 74  270/ 17/ 23   N/A           4/ 5
ST. JOSEPH                 74 74  270/ 14/ 19 1007.2F         5/ 5
$$

ILZ025>027-034>036-040-047-049-050-058-095>099-180800-
WEST-CENTRAL ILLINOIS

CITY           SKY/WX    TMP DP  RH WIND       PRES   REMARKS
QUINCY         CLEAR     65  61  87 W6        29.90S
GALESBURG*     CLEAR     65  62  89 W6        29.86F
MACOMB*        CLEAR     62  61  96 SW5       29.89S
JACKSONVILLE*  CLEAR     65  61  86 W5        29.88S
PITTSFIELD*    CLEAR     67  62  82 W3        29.91S
$$

ILZ028>032-037-038-041>044-048-051>054-059>061-180800-
CENTRAL ILLINOIS

CITY           SKY/WX    TMP DP  RH WIND       PRES   REMARKS
PONTIAC        CLEAR     67  66  97 W7        29.84S
BLOOMINGTON    CLEAR     66  62  87 W7        29.86S
DECATUR        CLEAR     69  65  86 W5        29.86F
PEORIA         CLEAR     68  64  87 W5        29.85F
LACON*         CLEAR     67  64  87 W3        29.83S
LINCOLN*       CLEAR     71  65  82 CALM      29.86S
SPRINGFIELD    CLEAR     66  64  93 W3        29.87S
TAYLORVILLE    CLEAR     64  64  98 W3        29.87F
$$

ILZ033-039-045-046-055>057-062-063-180800-
EAST-CENTRAL ILLINOIS

CITY           SKY/WX    TMP DP  RH WIND       PRES   REMARKS
CHAMPAIGN      CLEAR     64  62  93 W7        29.85F
RANTOUL*       CLEAR     69  66  88 W6        29.84F
MATTOON        CLEAR     69  66  90 W6        29.85F
PARIS*         CLEAR     67  65  94 W9        29.86S
$$

ILZ079-100>102-180800-
SOUTHWEST ILLINOIS

CITY           SKY/WX    TMP DP  RH WIND       PRES   REMARKS
ALTON          CLEAR     66  65  94 SW6       29.90S
BELLEVILLE     CLEAR     68  64  87 SW5       29.90F
CAHOKIA*       CLEAR     72  64  76 SW5       29.90F
SPARTA*        CLEAR     69  65  88 W3        29.92F
$$

ILZ064>066-069>071-074>076-080>082-084>086-088>090-092>094-180800-
SOUTH-CENTRAL ILLINOIS

CITY           SKY/WX    TMP DP  RH WIND       PRES   REMARKS
CARBONDALE     CLEAR     68  68 100 W6        29.91F
CAIRO*         PTCLDY    71  71  99 W6        29.92S
EFFINGHAM*     CLEAR     70  66  86 SW6       29.89S
MARION         CLEAR     72  70  94 CALM      29.91F
MT. VERNON     CLEAR     66  65  96 CALM      29.90S
CENTRALIA*     CLEAR     67  66  96 SW6       29.89F
SALEM*         CLEAR     68  65  89 SW6       29.89S
METROPOLIS*    CLEAR     74  73  96 CALM      29.92S
$$

ILZ067-068-072-073-078-083-087-091-180800-
SOUTHEAST ILLINOIS

CITY           SKY/WX    TMP DP  RH WIND       PRES   REMARKS
LAWRENCEVILLE  CLEAR     72  68  87 W8        29.87S
FLORA*         CLEAR     69  67  93 SW5       29.88F
FAIRFIELD*     CLEAR     67  67  98 CALM      29.88S
HARRISBURG*    CLEAR     70  69  94 W5        29.90F
ROBINSON*      CLEAR     67  66  94 W6        29.87S
CARMI*         PTCLDY    70  69  96 W5        29.88F
$$

ABBREVIATIONS USED IN REMARKS
   TC - TEMPERATURE IN CELSIUS
  WCI - WIND CHILL INDEX
   HX - HEAT INDEX
  VSB - VISIBILITY
$$





USA.gov is the U.S. government's official web portal to all federal, state and local government web resources and services.